This is the latest recevied weather packets stored in our database for station/object AI5BL. If no packets are shown the sender has not sent any weather packets the latest 10 day(s).
| Time | Temp. | Humidity | Pressure | Rain* | Wind** | Luminosity | Snow |
|---|---|---|---|---|---|---|---|
| 1787953691 | 32.78° C | 53% | 1017.1 hPa | 0 mm | - | 120 W/m² | - |
| 1787953386 | 32.78° C | 53% | 1017.2 hPa | 0 mm | - | 122 W/m² | - |
| 1787953084 | 32.78° C | 52% | 1017.3 hPa | 0 mm | - | 135 W/m² | - |
| 1787952783 | 32.78° C | 54% | 1017.2 hPa | 0 mm | - | 147 W/m² | - |
| 1787952477 | 32.22° C | 56% | 1017.2 hPa | 0 mm | - | 113 W/m² | - |
| 1787952175 | 31.67° C | 62% | 1017.4 hPa | 0 mm | - | 101 W/m² | - |
| 1787951867 | 32.78° C | 55% | 1017.2 hPa | 0 mm | - | 127 W/m² | - |
| 1787951563 | 32.78° C | 53% | 1017.3 hPa | 0 mm | - | 123 W/m² | - |
| 1787951259 | 32.22° C | 53% | 1017.4 hPa | 0 mm | - | 115 W/m² | - |
| 1787950954 | 32.78° C | 53% | 1017.5 hPa | 0 mm | - | 80 W/m² | - |
| 1787950650 | 33.33° C | 53% | 1017.4 hPa | 0 mm | - | 82 W/m² | - |
| 1787950346 | 33.33° C | 59% | 1017.4 hPa | 0 mm | - | 165 W/m² | - |
| 1787950042 | 32.78° C | 52% | 1017.6 hPa | 0 mm | - | 116 W/m² | - |
| 1787949737 | 32.78° C | 51% | 1017.8 hPa | 0 mm | - | 87 W/m² | - |
| 1787949436 | 33.33° C | 51% | 1017.7 hPa | 0 mm | - | 92 W/m² | - |
| 1787949131 | 33.33° C | 51% | 1017.8 hPa | 0 mm | - | 157 W/m² | - |
| 1787948828 | 32.78° C | 51% | 1017.7 hPa | 0 mm | - | 129 W/m² | - |
| 1787948528 | 33.33° C | 51% | 1018.1 hPa | 0 mm | - | 119 W/m² | - |
| 1787948223 | 33.33° C | 52% | 1017.8 hPa | 0 mm | - | 190 W/m² | - |
| 1787947921 | 33.89° C | 50% | 1017.9 hPa | 0 mm | - | 192 W/m² | - |
| 1787947617 | 33.33° C | 53% | 1017.8 hPa | 0 mm | - | 173 W/m² | - |
| 1787947315 | 33.33° C | 52% | 1018 hPa | 0 mm | - | 182 W/m² | - |
| 1787947010 | 33.89° C | 51% | 1017.8 hPa | 0 mm | - | 225 W/m² | - |
| 1787946708 | 33.89° C | 50% | 1017.9 hPa | 0 mm | - | 178 W/m² | - |
| 1787946408 | 33.33° C | 52% | 1018.1 hPa | 0 mm | - | 205 W/m² | - |
* Rain latest hour (hover to see other rain measurements)
** Current wind speed in m/s (hover to see current wind gust speed)